| time (UTC) | temp F | wind direction | speed MPH | gust MPH | rain 1hr in | rain 24hr in | rain mn in | humidity % | barometer mb |
| 20260502181355 | 65 | 109 | 2.0 | 5.0 | 0.00 | 0.00 | 0.00 | 67 | 1020.5 |
| 20260502180339 | 65 | 113 | 2.0 | 7.0 | 0.00 | 0.00 | 0.00 | 66 | 1020.4 |
| 20260502170350 | 65 | 93 | 1.0 | 6.0 | 0.00 | 0.00 | 0.00 | 62 | 1020.8 |
| 20260502164338 | 65 | 127 | 2.0 | 7.0 | 0.00 | 0.00 | 0.00 | 63 | 1021.2 |
| 20260502163357 | 66 | 98 | 4.0 | 8.0 | 0.00 | 0.00 | 0.00 | 63 | 1021.3 |
| 20260502162355 | 66 | 125 | 4.0 | 7.0 | 0.00 | 0.00 | 0.00 | 63 | 1021.3 |
| 20260502161356 | 66 | 114 | 3.0 | 9.0 | 0.00 | 0.00 | 0.00 | 62 | 1021.6 |
| 20260502160356 | 66 | 99 | 3.0 | 9.0 | 0.00 | 0.00 | 0.00 | 62 | 1021.6 |
| 20260502152338 | 67 | 119 | 4.0 | 10.0 | 0.00 | 0.00 | 0.00 | 60 | 1021.8 |
| 20260502151344 | 67 | 104 | 5.0 | 9.0 | 0.00 | 0.00 | 0.00 | 60 | 1021.8 |
| 20260502150347 | 67 | 32 | 3.0 | 7.0 | 0.00 | 0.00 | 0.00 | 62 | 1021.9 |
| 20260502130340 | 67 | 135 | 7.0 | 12.0 | 0.00 | 0.00 | 0.00 | 63 | 1023.0 |
| 20260502123345 | 68 | 112 | 5.0 | 13.0 | 0.00 | 0.00 | 0.00 | 55 | 1023.2 |
| 20260502122340 | 68 | 148 | 4.0 | 8.0 | 0.00 | 0.00 | 0.00 | 55 | 1023.0 |
| 20260502121347 | 69 | 61 | 4.0 | 9.0 | 0.00 | 0.00 | 0.00 | 55 | 1023.2 |
| 20260502120349 | 69 | 123 | 4.0 | 10.0 | 0.00 | 0.00 | 0.00 | 54 | 1023.2 |
| 20260502115347 | 70 | 123 | 4.0 | 11.0 | 0.00 | 0.00 | 0.00 | 53 | 1023.2 |
| 20260502113354 | 71 | 264 | 3.0 | 9.0 | 0.00 | 0.00 | 0.00 | 48 | 1023.2 |
| 20260502112355 | 70 | 114 | 3.0 | 9.0 | 0.00 | 0.00 | 0.00 | 45 | 1023.3 |
| 20260502111354 | 70 | 132 | 3.0 | 7.0 | 0.00 | 0.00 | 0.00 | 45 | 1023.3 |
| 20260502110340 | 70 | 109 | 5.0 | 8.0 | 0.00 | 0.00 | 0.00 | 43 | 1023.4 |
| 20260502105346 | 70 | 178 | 2.0 | 7.0 | 0.00 | 0.00 | 0.00 | 46 | 1023.6 |
| 20260502104356 | 70 | 129 | 2.0 | 6.0 | 0.00 | 0.00 | 0.00 | 47 | 1023.9 |
| 20260502103359 | 69 | 122 | 3.0 | 8.0 | 0.00 | 0.00 | 0.00 | 47 | 1023.9 |
| 20260502102353 | 69 | 137 | 2.0 | 5.0 | 0.00 | 0.00 | 0.00 | 50 | 1024.0 |
| 20260502101338 | 69 | 326 | 2.0 | 5.0 | 0.00 | 0.00 | 0.00 | 54 | 1024.0 |
| 20260502100340 | 69 | 147 | 1.0 | 7.0 | 0.00 | 0.00 | 0.00 | 55 | 1024.0 |
| 20260502091350 | 66 | 343 | 1.0 | 6.0 | 0.00 | 0.00 | 0.00 | 60 | 1024.4 |
| 20260502090341 | 66 | 358 | 3.0 | 4.0 | 0.00 | 0.00 | 0.00 | 61 | 1024.5 |
| 20260502071340 | 63 | 56 | 2.0 | 3.0 | 0.00 | 0.00 | 0.00 | 69 | 1024.6 |
| 20260502070346 | 63 | 56 | 1.0 | 3.0 | 0.00 | 0.00 | 0.00 | 70 | 1024.7 |
| 20260502065345 | 63 | 56 | 1.0 | 3.0 | 0.00 | 0.00 | 0.00 | 71 | 1024.7 |
| 20260502064345 | 62 | 55 | 1.0 | 4.0 | 0.00 | 0.00 | 0.00 | 71 | 1024.5 |
| 20260502063342 | 62 | 62 | 0.0 | 3.0 | 0.00 | 0.00 | 0.00 | 71 | 1024.5 |
| 20260502062357 | 62 | 62 | 1.0 | 4.0 | 0.00 | 0.00 | 0.00 | 71 | 1024.5 |
| 20260502061340 | 62 | 60 | 1.0 | 5.0 | 0.00 | 0.00 | 0.00 | 71 | 1024.5 |
| 20260502060343 | 62 | 58 | 3.0 | 6.0 | 0.00 | 0.00 | 0.00 | 71 | 1024.4 |
| 20260502055358 | 63 | 57 | 3.0 | 5.0 | 0.00 | 0.00 | 0.00 | 71 | 1024.3 |
| 20260502054357 | 63 | 34 | 1.0 | 5.0 | 0.00 | 0.00 | 0.00 | 71 | 1024.3 |
| 20260502053355 | 63 | 58 | 4.0 | 6.0 | 0.00 | 0.00 | 0.00 | 71 | 1024.2 |
| 20260502052354 | 63 | 39 | 3.0 | 5.0 | 0.00 | 0.00 | 0.00 | 71 | 1024.1 |
| 20260502051339 | 63 | 37 | 1.0 | 5.0 | 0.00 | 0.00 | 0.00 | 71 | 1024.1 |
| 20260502050343 | 63 | 44 | 2.0 | 5.0 | 0.00 | 0.00 | 0.00 | 71 | 1024.1 |
| 20260502045348 | 63 | 35 | 1.0 | 4.0 | 0.00 | 0.00 | 0.00 | 72 | 1024.1 |
| 20260502044353 | 63 | 37 | 0.0 | 6.0 | 0.00 | 0.00 | 0.00 | 72 | 1024.1 |
| 20260502043355 | 63 | 37 | 2.0 | 6.0 | 0.00 | 0.00 | 0.00 | 72 | 1024.0 |
| 20260502042351 | 63 | 21 | 4.0 | 6.0 | 0.00 | 0.00 | 0.00 | 73 | 1024.0 |
| 20260502041355 | 63 | 38 | 3.0 | 6.0 | 0.00 | 0.00 | 0.00 | 73 | 1023.9 |
| 20260502040338 | 63 | 10 | 4.0 | 6.0 | 0.00 | 0.00 | 0.00 | 74 | 1024.0 |
| 20260502035356 | 63 | 29 | 3.0 | 7.0 | 0.00 | 0.00 | 0.00 | 74 | 1024.0 |
| 20260502034336 | 63 | 28 | 4.0 | 7.0 | 0.00 | 0.00 | 0.00 | 73 | 1024.1 |
| 20260502033342 | 63 | 34 | 3.0 | 7.0 | 0.00 | 0.00 | 0.00 | 73 | 1023.9 |
| 20260502032358 | 63 | 54 | 3.0 | 5.0 | 0.00 | 0.00 | 0.00 | 72 | 1024.0 |
| 20260502031342 | 63 | 40 | 3.0 | 5.0 | 0.00 | 0.00 | 0.00 | 72 | 1024.1 |
| 20260502030340 | 63 | 41 | 2.0 | 5.0 | 0.00 | 0.00 | 0.00 | 72 | 1024.2 |
| 20260502025344 | 63 | 40 | 3.0 | 5.0 | 0.00 | 0.00 | 0.00 | 72 | 1024.4 |
| 20260502024342 | 63 | 40 | 1.0 | 4.0 | 0.00 | 0.00 | 0.00 | 72 | 1024.5 |
| 20260502023340 | 63 | 41 | 2.0 | 4.0 | 0.00 | 0.00 | 0.00 | 71 | 1024.4 |
| 20260502022355 | 63 | 42 | 2.0 | 4.0 | 0.00 | 0.00 | 0.00 | 71 | 1024.3 |
| 20260502021338 | 63 | 39 | 3.0 | 5.0 | 0.00 | 0.00 | 0.00 | 71 | 1024.3 |
| 20260502020340 | 62 | 55 | 2.0 | 6.0 | 0.00 | 0.00 | 0.00 | 70 | 1024.4 |
| 20260502015343 | 63 | 67 | 3.0 | 5.0 | 0.00 | 0.00 | 0.00 | 70 | 1024.4 |
| 20260502014355 | 63 | 44 | 2.0 | 5.0 | 0.00 | 0.00 | 0.00 | 70 | 1024.5 |
| 20260502013339 | 63 | 43 | 3.0 | 6.0 | 0.00 | 0.00 | 0.00 | 69 | 1024.3 |
| 20260502012357 | 63 | 48 | 4.0 | 6.0 | 0.00 | 0.00 | 0.00 | 69 | 1024.4 |
| 20260502011338 | 63 | 24 | 2.0 | 5.0 | 0.00 | 0.00 | 0.00 | 69 | 1024.6 |
| 20260502010355 | 63 | 42 | 1.0 | 4.0 | 0.00 | 0.00 | 0.00 | 68 | 1024.6 |
| 20260502005351 | 62 | 42 | 4.0 | 5.0 | 0.00 | 0.00 | 0.00 | 68 | 1024.7 |
| 20260502004341 | 63 | 40 | 3.0 | 4.0 | 0.00 | 0.00 | 0.00 | 68 | 1024.8 |
| 20260502003357 | 62 | 37 | 3.0 | 6.0 | 0.00 | 0.00 | 0.00 | 68 | 1025.0 |
| 20260502002355 | 62 | 34 | 3.0 | 7.0 | 0.00 | 0.00 | 0.00 | 67 | 1025.0 |
| 20260502001356 | 63 | 52 | 2.0 | 5.0 | 0.00 | 0.00 | 0.00 | 68 | 1025.2 |
| 20260502000357 | 63 | 37 | 1.0 | 4.0 | 0.00 | 0.00 | 0.00 | 67 | 1025.2 |
| 20260501235339 | 63 | 37 | 1.0 | 5.0 | 0.00 | 0.00 | 0.00 | 68 | 1025.4 |
| 20260501234347 | 63 | 44 | 2.0 | 4.0 | 0.00 | 0.00 | 0.00 | 67 | 1025.5 |
| 20260501233348 | 63 | 45 | 3.0 | 5.0 | 0.00 | 0.00 | 0.00 | 67 | 1025.6 |
| 20260501232344 | 63 | 49 | 3.0 | 5.0 | 0.00 | 0.00 | 0.00 | 67 | 1025.6 |
| 20260501231346 | 63 | 53 | 2.0 | 6.0 | 0.00 | 0.00 | 0.00 | 67 | 1025.5 |
| 20260501230351 | 63 | 39 | 3.0 | 6.0 | 0.00 | 0.00 | 0.00 | 68 | 1025.6 |
| 20260501225353 | 63 | 53 | 4.0 | 6.0 | 0.00 | 0.00 | 0.00 | 68 | 1025.5 |
| 20260501224353 | 63 | 41 | 3.0 | 5.0 | 0.00 | 0.00 | 0.00 | 70 | 1025.5 |
| 20260501223340 | 63 | 55 | 2.0 | 4.0 | 0.00 | 0.00 | 0.00 | 71 | 1025.5 |
| 20260501222337 | 63 | 11 | 2.0 | 4.0 | 0.00 | 0.00 | 0.00 | 72 | 1025.4 |
| 20260501221344 | 63 | 9 | 2.0 | 4.0 | 0.00 | 0.00 | 0.00 | 72 | 1025.3 |
| 20260501220349 | 63 | 9 | 1.0 | 4.0 | 0.00 | 0.00 | 0.00 | 73 | 1025.4 |
| 20260501215346 | 64 | 9 | 0.0 | 4.0 | 0.00 | 0.00 | 0.00 | 73 | 1025.5 |
| 20260501214348 | 64 | 9 | 1.0 | 5.0 | 0.00 | 0.00 | 0.00 | 72 | 1025.6 |
| 20260501213354 | 64 | 15 | 3.0 | 5.0 | 0.00 | 0.00 | 0.00 | 72 | 1025.5 |
| 20260501212354 | 64 | 19 | 1.0 | 4.0 | 0.00 | 0.00 | 0.00 | 72 | 1025.5 |
| 20260501211354 | 64 | 24 | 3.0 | 4.0 | 0.00 | 0.00 | 0.00 | 72 | 1025.4 |
| 20260501210339 | 64 | 56 | 1.0 | 3.0 | 0.00 | 0.00 | 0.00 | 71 | 1025.5 |
| 20260501205341 | 64 | 56 | 0.0 | 3.0 | 0.00 | 0.00 | 0.00 | 71 | 1025.6 |
| 20260501204345 | 64 | 65 | 1.0 | 4.0 | 0.00 | 0.00 | 0.00 | 71 | 1025.5 |
| 20260501203356 | 64 | 65 | 2.0 | 4.0 | 0.00 | 0.00 | 0.00 | 70 | 1025.5 |
| 20260501202347 | 64 | 69 | 1.0 | 4.0 | 0.00 | 0.00 | 0.00 | 69 | 1025.3 |
| 20260501201358 | 64 | 88 | 0.0 | 6.0 | 0.00 | 0.00 | 0.00 | 68 | 1025.3 |
| 20260501200357 | 64 | 105 | 3.0 | 6.0 | 0.00 | 0.00 | 0.00 | 69 | 1025.2 |
| 20260501195356 | 64 | 97 | 3.0 | 6.0 | 0.00 | 0.00 | 0.00 | 70 | 1025.1 |
| 20260501194352 | 64 | 70 | 0.0 | 7.0 | 0.00 | 0.00 | 0.00 | 70 | 1024.9 |
| 20260501193336 | 64 | 116 | 3.0 | 7.0 | 0.00 | 0.00 | 0.00 | 70 | 1024.8 |
| 20260501192339 | 65 | 96 | 3.0 | 8.0 | 0.00 | 0.00 | 0.00 | 69 | 1024.7 |
| 20260501191343 | 65 | 135 | 1.0 | 6.0 | 0.00 | 0.00 | 0.00 | 68 | 1024.5 |
| 20260501190347 | 65 | 129 | 1.0 | 6.0 | 0.00 | 0.00 | 0.00 | 68 | 1024.5 |
| 20260501185344 | 65 | 0 | 2.0 | 8.0 | 0.00 | 0.00 | 0.00 | 68 | 1024.4 |
| 20260501184348 | 65 | 133 | 3.0 | 7.0 | 0.00 | 0.00 | 0.00 | 68 | 1024.2 |
| 20260501183354 | 65 | 63 | 2.0 | 7.0 | 0.00 | 0.00 | 0.00 | 67 | 1024.1 |
| 20260501182353 | 65 | 61 | 3.0 | 9.0 | 0.00 | 0.00 | 0.00 | 67 | 1023.9 |